Regional Weather Roundup
Issued by NWS Charleston, SC

Home | Current Version | Previous Version | Text Only | Print | Product List | Glossary On
Versions: 1 2 3 4 5 6 7 8 9 10 11 12 13 14 15 16 17 18 19 20 21 22 23 24 25 26 27 28 29 30 31 32 33 34 35 36 37 38 39 40 41 42 43 44 45 46 47 48 49 50
000
ASUS42 KCHS 271210
RWRCHS
REGIONAL WEATHER ROUNDUP
NATIONAL WEATHER SERVICE CHARLESTON SC
700 AM EST THU NOV 27 2014

NOTE: "FAIR" INDICATES FEW OR NO CLOUDS BELOW 12,000 FEET WITH NO
SIGNIFICANT WEATHER AND/OR OBSTRUCTIONS TO VISIBILITY.

NOT ALL STATIONS ARE QUALITY CONTROLLED BY THE NATIONAL
WEATHER SERVICE. USE DATA WITH CAUTION...ESPECIALLY
DEWPOINT OBSERVATIONS.

SCZ027-030-031-034>040-042>050-271300-
...SOUTHEAST SOUTH CAROLINA...

CITY           SKY/WX    TMP DP  RH WIND       PRES   REMARKS
N CHARLESTON   CLEAR     44  37  76 W12       30.11R
6HR MIN TEMP:  40; 6HR MAX TEMP:  45;

WATERFRONT PRK   N/A     48 N/A N/A W8G15       N/A
MOUNT PLEASANT FAIR      48  37  66 W10G18    30.10S
JOHNS ISLAND   SUNNY     48  43  81 W12G17    30.12R
PINOPOLIS        N/A     46  39  76 SW17      30.01R
MONCKS CORNER  FAIR      45  39  81 SW8       30.09R
SUMMERVILLE    FAIR      41  37  87 SW7       30.11R
BEAUFORT MCAS  CLEAR     46  36  68 W13G22    30.14R
6HR MIN TEMP:  45; 6HR MAX TEMP:  48;

BEAUFORT ARPT  FAIR      46  37  71 W12       30.14R
HILTON HEAD IS CLEAR     48  37  66 SW9       30.17
WALTERBORO     SUNNY     45  34  65 W10       30.12R
ALLENDALE      FAIR      41  37  87 CALM      30.12R

...SOUTHERN MIDLANDS AND PEE DEE...

CITY           SKY/WX    TMP DP  RH WIND       PRES   REMARKS
GEORGETOWN     NOT AVBL
KINGSTREE      NOT AVBL
ORANGEBURG     CLEAR     44  33  65 W14       30.08R
6HR MIN TEMP:  39; 6HR MAX TEMP:  44;

BARNWELL       FAIR      43  34  70 W8        30.12R
AIKEN          FAIR      43  32  65 W12G18    30.12R
MANNING        NOT AVBL
COLUMBIA       CLEAR     44  32  62 W13       30.06R
6HR MIN TEMP:  41; 6HR MAX TEMP:  45;

SUMTER         CLEAR     42  32  68 SW12      30.03R
6HR MIN TEMP:  38; 6HR MAX TEMP:  44;

FLORENCE       CLEAR     42  35  76 W10       30.03R
6HR MIN TEMP:  40; 6HR MAX TEMP:  43;

MYRTLE BEACH   PTCLDY    46  36  66 SW10      30.05F
N MYRTLE BEACH CLOUDY    50  37  61 SW14      30.03F
6HR MIN TEMP:  39; 6HR MAX TEMP:  50;


$$

GAZ063-065-086>088-099>101-113>116-118-119-134>141-150-271300-
...SOUTHEAST GEORGIA...

CITY           SKY/WX    TMP DP  RH WIND       PRES   REMARKS
SAVANNAH ARPT  CLEAR     43  36  76 W8        30.18R
6HR MIN TEMP:  43; 6HR MAX TEMP:  47;

HUNTER AAF     CLEAR     43  37  80 W10       30.16R
6HR MIN TEMP:  43; 6HR MAX TEMP:  46;

FORT STEWART   CLEAR     41  37  83 SW7       30.18R
6HR MIN TEMP:  41; 6HR MAX TEMP:  44;

STATESBORO     NOT AVBL
SYLVANIA       SUNNY     46  37  73 SW7       30.16R
CLAXTON        FAIR      45  23  42 W7        30.18R

...CSRA...CENTRAL AND FAR SOUTHEAST GEORGIA...

CITY           SKY/WX    TMP DP  RH WIND       PRES   REMARKS
THOMSON        CLEAR     42  35  76 W9        30.19R
AUGUSTA-BUSH   CLEAR     41  31  67 W8        30.13R
6HR MIN TEMP:  39; 6HR MAX TEMP:  43;

AUGUSTA-DANIEL CLEAR     46  28  49 W14G23    30.12R
SWAINSBORO     FAIR      45  37  76 SW5       30.17R
VIDALIA        CLEAR     43  37  81 W7        30.20R
HAZLEHURST     FAIR      44  40  86 W5        30.20R
ALMA           CLEAR     37  35  92 SW3       30.22R
6HR MIN TEMP:  37; 6HR MAX TEMP:  45;

WAYCROSS       CLEAR     49  43  80 W7        30.22R
JESUP          FAIR      45  41  87 CALM      30.21R
BAXLEY         FAIR      43  37  81 W3        30.21R
BRUNSWICK      CLEAR     45  37  76 W7        30.22R
SAINT SIMONS   CLEAR     47  38  71 W8        30.21R
6HR MIN TEMP:  45; 6HR MAX TEMP:  48;


$$

SCZ027-028-034-036>038-045-046-048>050-GAZ119-141-271300-
...LAKE AND SUPPLEMENTAL COASTAL OBSERVATIONS...

STATION/POSITION TIME  TEMP    WIND        PRES    WAVE   SWELL
                       AIR SEA DIR/SP/G            HT/PER HT/PER/DIR
                 (UTC) (F)     (DEG/KT/KT) (MB)    (FT/S) (FT/S/D)
UPR LAKE MARION  NOT AVBL
WINYAH BAY       1100   43     240/  4     1018.0S
LAKE MURRAY      1100   48     270/ 22/ 29 1016.3R
ACE BASIN NERRS  1100   48     250/  4     1019.0S
FORT PULASKI     1200   49     260/ 12/ 16 1021.4R
SAPELO ISLAND    1100   49     250/ 11     1022.0R

$$

ANZ835-935-AMZ111-154-330-350-352-354-370-450-454-472-271300-
...C-MAN AND BUOY OBSERVATIONS...

STATION/POSITION TIME  TEMP    WIND        PRES    WAVE   SWELL
                       AIR SEA DIR/SP/G            HT/PER HT/PER/DIR
                 (UTC) (F)     (DEG/KT/KT) (MB)    (FT/S) (FT/S/D)
FOLLY BEACH CMAN 1100   51     240/ 10/ 15 1019.5R
BUOY 41004       1200   62 74  250/ 27/ 35 1018.0F   6/ 6   2/14
BUOY 41008       1200   55 64  280/ 23/ 29 1021.5R   4/ 5   2/110/ 9
CAPERS NEARSHORE 1100   56     260/ 25/ 29   N/A
FRIPP NEARSHORE  NOT AVBL


STATION/POSITION TIME  TEMP    WIND        PRES    WAVE   SWELL
                       AIR SEA DIR/SP/G            HT/PER HT/PER/DIR
                 (UTC) (F)     (DEG/KT/KT) (MB)    (FT/S) (FT/S/D)
5E ST. MARYS GA  1200      61                N/A     2/ 9
FRYING PAN BUOY  1200   59 70  250/ 17/ 23 1018.3F   5/ 6   2/140/ 9
BUOY 41025       1200   50     290/  2/  8 1018.7S   6/ 9   5/140/ 9
CAPE LOOKOUT NC  1100   48     160/  5/  6 1018.1F
BUOY 41002       1101   65 73  300/ 12/ 16 1020.4R   9/ 8   8/260/ 8
BUOY 41010       1200   68 78  320/ 16/ 21 1022.4R   6/ 7   3/ 40/15
ST AUGUSTINE FL  1200   44     230/  6/  8 1024.1R


$$


USA.gov is the U.S. government's official web portal to all federal, state and local government web resources and services.